Find OneWeb SL0417

NORAD ID: 50492 Int'l Des: 2021-132 Owner: ONEWEBN Country: UK Constellation: oneweb operational
LEOCIRCULARPOLARONEWEB_TYPE

Live Position

Loading 3D Globe...

About OneWeb SL0417

Description loading...

Upcoming Passes

Passes for default location (London). Set your location on the main map for personalized predictions.

Altitude History

Loading altitude history...

Two-Line Element Set

1 50492U 21132Z 26105.95993561 .00000034 00000-0 52558-4 0 9996
2 50492 87.9214 347.8346 0001541 83.5826 276.5481 13.18684331213402
Epoch: Apr 15, 2026 • Age: 11 hours

Current Status

Altitude 1202.5 km
Velocity 7.26 km/s
Sub-Earth Point 87.60°N, 107.15°E
Launch Date Dec 27, 2021
Age 4.3 years
Type internet

Technical Details

Classification Payload
Mass 148.00 kg
Dry Mass 140.00 kg
Total Mass 148.00 kg
Length 1.30 m
Diameter 1.00 m
Span 5.00 m
Shape Trapezoid+2 pan
Manufacturer ONEWUS
Bus Type ARROW
Phase Status In Orbit
Owner/State ONEWEBN/UK

Most Searched